Location: C�mpuri de-Sus
(45.9500°N, 22.5500°E)
Time: 04:42:08
(UTC+00:00)

USA 215 - Pass Details

Date: 24 October 2021
Orbit: 1099 x 1109 km, 123.0° (Epoch: 20 November)

Event Time Altitude Azimuth Distance (km) Brightness Sun altitude
Exits shadow 19:08:35 33° 351° (N) 1,759 4.4 -38.3°
Drops below altitude 10° 19:13:45 10° 300° (WNW) 2,965 6.2 -39.1°
Sets 19:16:28 0° 292° (WNW) 3,924 7.1 -39.5°
